869  
FPUS82 KCHS 250312  
OPUCHS  
 
TEST   
..KCHS/KSAV GATEWAY OBSERVATIONS
 
TEST  
NATIONAL WEATHER SERVICE CHARLESTON SC  
1100 PM EDT MON SEP 24 2018  
 
NOTE: "FAIR" INDICATES FEW OR NO CLOUDS BELOW 12,000 FEET WITH NO  
SIGNIFICANT WEATHER AND/OR OBSTRUCTIONS TO VISIBILITY.  
 
SCZ050-WAZ558-NCZ071-TXZ119-213-PAZ071-DCZ001-FLZ074-172-MI076-  
NYZ176-178-MAZ016-IL014-TNZ027-NJZ106-GAZ044-MD014-250400-  
   
..GATEWAY OBSERVATIONS FOR CHARLESTON INTERNATIONAL
 
 
 
CITY SKY/WX TMP DP RH WIND PRES REMARKS  
CHAS AIRPORT MOCLDY 76 71 85 N5 30.17R  
SEATTLE PTCLDY 58 46 64 N15 30.27R  
CHARLOTTE MOCLDY 71 68 90 NE9G21 30.25S  
DALLAS DFW PTCLDY 73 68 84 SE5 29.87R  
DALLAS LOVE CLEAR 77 69 76 S6 29.88R  
PHILLADELPHIA CLOUDY 62 57 83 E13 30.43S  
WASH NATIONAL LGT RAIN 66 63 90 NE9 30.33F FOG  
BALTIMORE CLOUDY 63 62 97 E12 30.35S  
MIAMI LGT RAIN 82 77 84 E10 30.05R HX 90  
DETROIT RAIN 68 64 87 SE12 30.05S FOG  
NEWARK CLOUDY 61 52 72 NE14 30.49S  
LAGUARDIA CLOUDY 62 51 67 E17 30.50S  
J F K CLOUDY 60 54 80 NE14 30.51S  
BOSTON LOGAN MOCLDY 56 44 64 E15 30.62S  
FT. LAUDERDALE FAIR 83 78 85 NE5 30.04R HX 93  
CHICAGO O'HARE CLOUDY 71 64 78 VRB5 29.92S  
CHICAGO MIDWAY CLOUDY 71 66 84 SE9 29.92F  
HOUSTON BUSH PTCLDY 81 74 79 S8 29.91R  
HOUSTON HOBBY FAIR 78 71 79 SE3 29.92R  
NASHVILLE FAIR 72 70 93 SE10 30.04S  
ATLANTA MOCLDY 76 68 76 E13 30.16R  
 

 
 
GAZ044-118-TXZ119-213-NCZ071-DCZ001-MDZ014-506-PAZ021-071-NJZ106-  
NYZ176-178-MAZ106-OHZ011-021-055-MIZ076-KYZ091-ILZ014-INZ047-  
MNZ060-ONZ431-250400-  
   
..GATEWAY OBSERVATIONS FOR SAVANNAH INTERNATIONAL
 
 
 
CITY SKY/WX TMP DP RH WIND PRES REMARKS  
SAVANNAH ARPT FAIR 76 72 87 N6 30.15R  
ATLANTA MOCLDY 76 68 76 E13 30.16R  
CHARLOTTE MOCLDY 71 68 90 NE9G21 30.25S  
DALLAS DFW PTCLDY 73 68 84 SE5 29.87R  
HOUSTON BUSH PTCLDY 81 74 79 S8 29.91R  
WASH NATIONAL LGT RAIN 66 63 90 NE9 30.33F FOG  
WASH DULLES CLOUDY 64 63 96 E10 30.32S  
BALTIMORE CLOUDY 63 62 97 E12 30.35S  
PHILADELPHIA CLOUDY 62 57 83 E13 30.43S  
NEWARK CLOUDY 61 52 72 NE14 30.49S  
LAGUARDIA CLOUDY 62 51 67 E17 30.50S  
J F K CLOUDY 60 54 80 NE14 30.51S  
BOSTON MOCLDY 56 44 64 E15 30.62S  
PITTSBURG LGT RAIN 61 60 97 E10 30.22S  
AKRON LGT RAIN 65 61 87 SE17 30.16S  
CLEVELAND CLOUDY 66 63 90 SE14 30.13S  
CINCINNATI CLOUDY 69 69 100 S13 30.05R  
COLUMBUS CLOUDY 67 67 100 SE10 30.08S  
DETROIT RAIN 68 64 87 SE12 30.05S FOG  
CHICAGO O'HARE CLOUDY 71 64 78 VRB5 29.92S  
MINNEAPOLIS TSTM 61 59 93 N12 29.84R FOG  
INDIANAPOLIS CLOUDY 71 70 96 S8 29.98S  
TORONTO CANADA LGT RAIN 66 55 68 SE13G18 30.20F  
 

 
 
 
CLICK HERE TO GO TO PREVIOUS BULLETINS.

The Nexlab SC Page
The Nexlab GA Page Main Text Page